Location: Boiro
(42.6475°N, 8.8834°W)
Time: 23:10:00
(UTC+01:00)

A-11 Canister half - Pass Details

Date: 06 December 2021
Orbit: 1516 x 1684 km, 47.2° (Epoch: 18 January)

Event Time Altitude Azimuth Distance (km) Brightness Sun altitude
Rises 13:39:01 0° 295° (WNW) 4,877 11.4 24.7°
Reaches altitude 10° 13:42:08 10° 294° (WNW) 3,906 11.0 24.7°
Maximum altitude 13:52:07 72° 213° (SSW) 1,753 10.1 24.5°
Drops below altitude 10° 14:02:12 10° 131° (SE) 3,938 11.7 24.3°
Sets 14:05:22 0° 130° (SE) 4,918 12.0 24.2°
